This is the latest recevied weather packets stored in our database for station/object KC3ULW-13. If no packets are shown the sender has not sent any weather packets the latest 10 day(s).
| Time | Temp. | Humidity | Pressure | Rain* | Wind** | Luminosity | Snow |
|---|---|---|---|---|---|---|---|
| 1777769896 | 5.56° C | 69% | 1018.9 hPa | 0 mm | - | 0 W/m² | - |
| 1777768987 | 5.56° C | 68% | 1018.7 hPa | 0 mm | - | 0 W/m² | - |
| 1777768380 | 5.56° C | 67% | 1018.6 hPa | 0 mm | - | 0 W/m² | - |
| 1777767167 | 6.11° C | 66% | 1018.8 hPa | 0 mm | - | 1 W/m² | - |
| 1777766865 | 6.11° C | 66% | 1018.6 hPa | 0 mm | - | 3 W/m² | - |
| 1777766562 | 6.11° C | 65% | 1018.5 hPa | 0 mm | - | 5 W/m² | - |
| 1777766259 | 6.11° C | 66% | 1018.4 hPa | 0 mm | - | 4 W/m² | - |
| 1777765652 | 6.11° C | 65% | 1018.3 hPa | 0 mm | - | 6 W/m² | - |
| 1777765046 | 6.11° C | 65% | 1018.4 hPa | 0 mm | - | 18 W/m² | - |
| 1777764743 | 6.11° C | 65% | 1018.4 hPa | 0 mm | - | 19 W/m² | - |
| 1777764438 | 6.11° C | 65% | 1018.4 hPa | 0 mm | - | 22 W/m² | - |
| 1777764136 | 6.67° C | 64% | 1018.5 hPa | 0 mm | - | 26 W/m² | - |
| 1777763833 | 6.67° C | 64% | 1018.2 hPa | 0 mm | - | 33 W/m² | - |
| 1777762320 | 6.67° C | 67% | 1018.6 hPa | 0 mm | - | 48 W/m² | - |
| 1777761713 | 6.67° C | 67% | 1018.4 hPa | 0 mm | - | 49 W/m² | - |
| 1777761410 | 6.67° C | 67% | 1018.2 hPa | 0 mm | - | 51 W/m² | - |
| 1777761108 | 6.67° C | 67% | 1018.4 hPa | 0 mm | - | 50 W/m² | - |
| 1777760806 | 6.67° C | 67% | 1018.4 hPa | 0 mm | - | 49 W/m² | - |
| 1777760502 | 6.67° C | 68% | 1018.4 hPa | 0 mm | - | 52 W/m² | - |
| 1777760198 | 6.67° C | 68% | 1018.4 hPa | 0 mm | - | 58 W/m² | - |
| 1777759895 | 6.67° C | 68% | 1018.3 hPa | 0 mm | - | 53 W/m² | - |
| 1777758682 | 6.67° C | 67% | 1018.1 hPa | 0 mm | - | 83 W/m² | - |
| 1777758379 | 6.67° C | 68% | 1018.1 hPa | 0 mm | - | 88 W/m² | - |
| 1777757773 | 7.22° C | 67% | 1018 hPa | 0 mm | - | 114 W/m² | - |
| 1777757470 | 7.22° C | 68% | 1018 hPa | 0 mm | - | 144 W/m² | - |
* Rain latest hour (hover to see other rain measurements)
** Current wind speed in m/s (hover to see current wind gust speed)